Location: Baumgartsau
(48.4586°N, 14.0864°E)
Time: 08:27:09
(UTC+00:00)

Cosmos 1408 - Pass Details

Date: 09 April 2020
Orbit: 470 x 495 km, 82.6° (Epoch: 06 June)

Event Time Altitude Azimuth Distance (km) Brightness Sun altitude
Rises 20:41:32 0° 344° (NNW) 2,565 7.3 -25.3°
Reaches altitude 10° 20:43:41 10° 338° (NNW) 1,684 6.2 -25.6°
Enters shadow 20:46:34 40° 297° (WNW) 742 3.8 -25.9°
